Location: Miss�
(46.9484°N, 0.1922°W)
Time: 21:24:54
(UTC+00:00)

Cosmos 1666 Rocket - Pass Details

Date: 02 March 2021
Orbit: 605 x 632 km, 82.5° (Epoch: 14 April)

Event Time Altitude Azimuth Distance (km) Brightness Sun altitude
Rises 18:40:24 0° 190° (S) 2,860 7.1 -9.7°
Reaches altitude 10° 18:42:37 10° 192° (SSW) 1,957 6.3 -10.1°
Maximum altitude 18:46:57 79° 280° (W) 624 3.7 -10.9°
Drops below altitude 10° 18:51:18 10° 7° (N) 1,965 6.1 -11.6°
Sets 18:53:31 0° 9° (N) 2,873 6.9 -12.0°
